Tracking 23726 objects as of 25-Sep-2021
HD Live streaming from Space Station
objects crossing your sky now

STTW-T2

Track STTW-T2 now!
STTW-T2 is classified as:


NORAD ID: 14899
Int'l Code: 1984-035A
Perigee: 35,736.7 km
Apogee: 35,827.7 km
Inclination: 12.4 °
Period: 1,435.5 minutes
Semi major axis: 42153 km
RCS: 3.981 m2 (large)
Launch date: April 8, 1984
Source: People's Republic of China (PRC)
Launch site: Xichang Space Center, China (XSC)
aabbcc
Your satellite tracking list
Your tracking list is empty




NASA's NSSDC Master Catalog

Two Line Element Set (TLE):
1 14899U 84035A   21267.82907987  .00000093  00000-0  00000-0 0  9991
2 14899  12.3792 330.9110 0010788 139.0931 209.9711  1.00312976 30050
Source of the keplerian elements: AFSPC